Simultaneous Nadir Overpasses (SNOs) Predictions

Prediction of SNOs between GOES-14 and NPP Satellite Orbit:

Table of predicted SNOs for the next 14.0 days since TLE Epoch: 8/6/2022
Index Date Time (GOES-14) GOES-14 Lat,Lon NPP Lat,Lon Distance(km) Time Diff (sec)
1 08/06/2022 08:05:54 -0.38,-104.43 -1.20,-100.64 430.84 80
2 08/07/2022 20:27:53 0.41,-104.69 0.12,-105.97 146.79 80
3 08/08/2022 20:11:50 0.40,-104.69 1.16,-101.45 369.52 80
4 08/10/2022 08:33:38 -0.43,-104.43 0.05,-106.72 260.18 80
5 08/11/2022 08:12:14 -0.42,-104.42 -0.93,-102.18 254.96 80
6 08/12/2022 20:34:12 0.44,-104.65 -0.21,-107.50 324.76 80
7 08/13/2022 20:18:09 0.44,-104.66 0.83,-102.98 192.13 80
8 08/15/2022 08:39:57 -0.46,-104.43 0.37,-108.24 433.90 80
9 08/16/2022 08:18:33 -0.44,-104.42 -0.61,-103.71 81.64 80
10 08/17/2022 20:40:31 0.46,-104.64 -0.52,-109.03 500.00 80
11 08/18/2022 20:24:27 0.46,-104.65 0.52,-104.50 17.38 80
